Weather in Santiago

Philippines     16°41′21″N   121°32′37″E
temp.,
°C
wind,
m/s
gust,
m/s
humid.,
%
clouds,
%
prec.,
mm/h
press.,
hPa
HPBL,
m
26 january, tue
tue2623:00+22e019687 2.1 101323
02:00+22ene119885 2.6 101252
05:00+22n119898 1.8 101245
08:00+23nne139594 3.0 1013229
11:00+22nne1298100 6.8 1013171
14:00+22sw1298100 11.8 101175
17:00+23sw1295100 3.3 101150
20:00+22wnw1196100 5.9 101331
27 january, wed
wed2723:00+22nw1296100 1.7 101358
02:00+22ne139799 2.0 1012104
05:00+21n129679 0.4 101250
08:00+22ne239689 0.6 1014240
11:00+25nne338588 0.6 1013588
14:00+26ne358168 1.9 1012793
17:00+24ne359098 1.3 1012407
20:00+21ne389497 1.8 1013352
28 january, thu
thu2823:00+21nne1494100 0.1 1014224
02:00+20ene139496 0.1 1013139
05:00+20e1294100 0.0 1014132
08:00+20nne1292100 0.1 1015193
11:00+21n1287100 0.0 1016297
14:00+25nne236877 0.1 1014943
17:00+21nne499168 0.6 1014496
20:00+20nne3108978 0.9 1016484
29 january, fri
fri2923:00+19ne2791100 0.6 1017299
02:00+19nne3891100 0.9 1016289
05:00+18ne2590100 0.4 1016188
08:00+19nne3788100 0.7 1018365
11:00+20nne468798 0.6 1018574
14:00+18ne489299 1.8 1017395
17:00+18ne2793100 1.1 1017333
20:00+17nne2891100 1.9 1019384
30 january, sat
sat3023:00+17nne279097 0.1 1019342
02:00+16ne129198 0.3 1018121
05:00+16ene129176 0.1 101897
08:00+17e128987 0.1 1020154
11:00+17n1387100 0.1 1020300
14:00+21ne357585 0.4 1018988
17:00+19ne258562 0.3 1017670
20:00+16nnw119138 0.4 101925